Location: North Bay Shore
(40.7362°N, 73.2626°W)
Time: 05:56:36
(UTC+00:00)

Cosmos 2082 - Pass Details

Date: 29 October 2020
Orbit: 832 x 857 km, 71.0° (Epoch: 27 November)

Event Time Altitude Azimuth Distance (km) Brightness Sun altitude
Rises 23:17:56 0° 338° (NNW) 3,435 7.1 -16.7°
Reaches altitude 10° 23:20:25 10° 341° (NNW) 2,497 6.3 -17.2°
Maximum altitude 23:26:09 68° 65° (ENE) 924 3.6 -18.3°
Enters shadow 23:31:46 10° 148° (SSE) 2,458 5.8 -19.3°
